Year,Month,Day,Hour,Minute,Value (Times are PST for temperature in C)
2015,06,27,00,00,20.60
2015,06,27,00,01,20.50
2015,06,27,00,02,20.50
2015,06,27,00,03,20.40
2015,06,27,00,04,20.40
2015,06,27,00,05,20.40
2015,06,27,00,06,20.30
2015,06,27,00,07,20.30
2015,06,27,00,08,20.30
2015,06,27,00,09,20.30
2015,06,27,00,10,20.30
2015,06,27,00,11,20.30
2015,06,27,00,12,20.30
2015,06,27,00,13,20.20
2015,06,27,00,14,20.20
2015,06,27,00,15,20.20
2015,06,27,00,16,20.20
2015,06,27,00,17,20.20
2015,06,27,00,18,20.20
2015,06,27,00,19,20.20
2015,06,27,00,20,20.20
2015,06,27,00,21,20.20
2015,06,27,00,22,20.10
2015,06,27,00,23,20.10
2015,06,27,00,24,20.10
2015,06,27,00,25,20.10
2015,06,27,00,26,20.10
2015,06,27,00,27,20.10
2015,06,27,00,28,20.00
2015,06,27,00,29,20.00
2015,06,27,00,30,20.00
2015,06,27,00,31,20.00
2015,06,27,00,32,20.00
2015,06,27,00,33,20.00
2015,06,27,00,34,19.90
2015,06,27,00,35,19.90
2015,06,27,00,36,19.90
2015,06,27,00,37,19.90
2015,06,27,00,38,19.80
2015,06,27,00,39,19.80
2015,06,27,00,40,19.80
2015,06,27,00,41,19.80
2015,06,27,00,42,19.80
2015,06,27,00,43,19.70
2015,06,27,00,44,19.70
2015,06,27,00,45,19.70
2015,06,27,00,46,19.70
2015,06,27,00,47,19.70
2015,06,27,00,48,19.60
2015,06,27,00,49,19.60
2015,06,27,00,50,19.60
2015,06,27,00,51,19.60
2015,06,27,00,52,19.50
2015,06,27,00,53,19.50
2015,06,27,00,54,19.40
2015,06,27,00,55,19.40
2015,06,27,00,56,19.40
2015,06,27,00,57,19.40
2015,06,27,00,58,19.30
2015,06,27,00,59,19.30
2015,06,27,01,00,19.30
2015,06,27,01,01,19.30
2015,06,27,01,02,19.30
2015,06,27,01,03,19.30
2015,06,27,01,04,19.30
2015,06,27,01,05,19.30
2015,06,27,01,06,19.30
2015,06,27,01,07,19.30
2015,06,27,01,08,19.30
2015,06,27,01,09,19.30
2015,06,27,01,10,19.30
2015,06,27,01,11,19.40
2015,06,27,01,12,19.50
2015,06,27,01,13,19.60
2015,06,27,01,14,19.60
2015,06,27,01,15,19.70
2015,06,27,01,16,19.70
2015,06,27,01,17,19.70
2015,06,27,01,18,19.60
2015,06,27,01,19,19.50
2015,06,27,01,20,19.50
2015,06,27,01,21,19.40
2015,06,27,01,22,19.40
2015,06,27,01,23,19.40
2015,06,27,01,24,19.40
2015,06,27,01,25,19.30
2015,06,27,01,26,19.20
2015,06,27,01,27,19.20
2015,06,27,01,28,19.10
2015,06,27,01,29,19.10
2015,06,27,01,30,19.10
2015,06,27,01,31,19.00
2015,06,27,01,32,19.00
2015,06,27,01,33,18.90
2015,06,27,01,34,18.90
2015,06,27,01,35,18.90
2015,06,27,01,36,18.90
2015,06,27,01,37,18.90
2015,06,27,01,38,18.90
2015,06,27,01,39,18.90
2015,06,27,01,40,18.90
2015,06,27,01,41,18.80
2015,06,27,01,42,18.80
2015,06,27,01,43,18.80
2015,06,27,01,44,18.80
2015,06,27,01,45,18.80
2015,06,27,01,46,18.80
2015,06,27,01,47,18.80
2015,06,27,01,48,18.80
2015,06,27,01,49,18.80
2015,06,27,01,50,18.80
2015,06,27,01,51,18.80
2015,06,27,01,52,18.80
2015,06,27,01,53,18.80
2015,06,27,01,54,18.80
2015,06,27,01,55,18.80
2015,06,27,01,56,18.80
2015,06,27,01,57,18.80
2015,06,27,01,58,18.80
2015,06,27,01,59,18.80
2015,06,27,02,00,18.70
2015,06,27,02,01,18.70
2015,06,27,02,02,18.70
2015,06,27,02,03,18.70
2015,06,27,02,04,18.70
2015,06,27,02,05,18.70
2015,06,27,02,06,18.70
2015,06,27,02,07,18.70
2015,06,27,02,08,18.70
2015,06,27,02,09,18.70
2015,06,27,02,10,18.60
2015,06,27,02,11,18.60
2015,06,27,02,12,18.60
2015,06,27,02,13,18.60
2015,06,27,02,14,18.50
2015,06,27,02,15,18.50
2015,06,27,02,16,18.50
2015,06,27,02,17,18.40
2015,06,27,02,18,18.40
2015,06,27,02,19,18.40
2015,06,27,02,20,18.40
2015,06,27,02,21,18.40
2015,06,27,02,22,18.30
2015,06,27,02,23,18.30
2015,06,27,02,24,18.30
2015,06,27,02,25,18.30
2015,06,27,02,26,18.30
2015,06,27,02,27,18.20
2015,06,27,02,28,18.20
2015,06,27,02,29,18.20
2015,06,27,02,30,18.20
2015,06,27,02,31,18.20
2015,06,27,02,32,18.20
2015,06,27,02,33,18.10
2015,06,27,02,34,18.10
2015,06,27,02,35,18.10
2015,06,27,02,36,18.10
2015,06,27,02,37,18.10
2015,06,27,02,38,18.00
2015,06,27,02,39,18.00
2015,06,27,02,40,18.00
2015,06,27,02,41,18.00
2015,06,27,02,42,18.00
2015,06,27,02,43,17.90
2015,06,27,02,44,17.90
2015,06,27,02,45,17.90
2015,06,27,02,46,17.90
2015,06,27,02,47,17.90
2015,06,27,02,48,17.90
2015,06,27,02,49,17.90
2015,06,27,02,50,17.90
2015,06,27,02,51,17.90
2015,06,27,02,52,17.90
2015,06,27,02,53,17.90
2015,06,27,02,54,17.90
2015,06,27,02,55,17.90
2015,06,27,02,56,17.90
2015,06,27,02,57,18.00
2015,06,27,02,58,18.00
2015,06,27,02,59,18.00
2015,06,27,03,00,18.00
2015,06,27,03,01,18.00
2015,06,27,03,02,18.10
2015,06,27,03,03,18.10
2015,06,27,03,04,18.00
2015,06,27,03,05,18.00
2015,06,27,03,06,18.00
2015,06,27,03,07,17.90
2015,06,27,03,08,17.90
2015,06,27,03,09,17.90
2015,06,27,03,10,17.90
2015,06,27,03,11,17.90
2015,06,27,03,12,17.90
2015,06,27,03,13,17.90
2015,06,27,03,14,17.90
2015,06,27,03,15,17.90
2015,06,27,03,16,17.90
2015,06,27,03,17,17.90
2015,06,27,03,18,17.90
2015,06,27,03,19,17.90
2015,06,27,03,20,17.90
2015,06,27,03,21,17.90
2015,06,27,03,22,17.90
2015,06,27,03,23,17.90
2015,06,27,03,24,17.90
2015,06,27,03,25,17.90
2015,06,27,03,26,17.90
2015,06,27,03,27,17.90
2015,06,27,03,28,17.80
2015,06,27,03,29,17.80
2015,06,27,03,30,17.80
2015,06,27,03,31,17.80
2015,06,27,03,32,17.80
2015,06,27,03,33,17.80
2015,06,27,03,34,17.70
2015,06,27,03,35,17.70
2015,06,27,03,36,17.70
2015,06,27,03,37,17.70
2015,06,27,03,38,17.70
2015,06,27,03,39,17.70
2015,06,27,03,40,17.60
2015,06,27,03,41,17.60
2015,06,27,03,42,17.60
2015,06,27,03,43,17.60
2015,06,27,03,44,17.60
2015,06,27,03,45,17.60
2015,06,27,03,46,17.60
2015,06,27,03,47,17.60
2015,06,27,03,48,17.60
2015,06,27,03,49,17.60
2015,06,27,03,50,17.60
2015,06,27,03,51,17.60
2015,06,27,03,52,17.60
2015,06,27,03,53,17.60
2015,06,27,03,54,17.60
2015,06,27,03,55,17.60
2015,06,27,03,56,17.60
2015,06,27,03,57,17.60
2015,06,27,03,58,17.60
2015,06,27,03,59,17.60
2015,06,27,04,00,17.60
2015,06,27,04,01,17.60
2015,06,27,04,02,17.50
2015,06,27,04,03,17.50
2015,06,27,04,04,17.50
2015,06,27,04,05,17.50
2015,06,27,04,06,17.40
2015,06,27,04,07,17.40
2015,06,27,04,08,17.40
2015,06,27,04,09,17.40
2015,06,27,04,10,17.40
2015,06,27,04,11,17.30
2015,06,27,04,12,17.30
2015,06,27,04,13,17.30
2015,06,27,04,14,17.30
2015,06,27,04,15,17.30
2015,06,27,04,16,17.30
2015,06,27,04,17,17.30
2015,06,27,04,18,17.20
2015,06,27,04,19,17.20
2015,06,27,04,20,17.20
2015,06,27,04,21,17.20
2015,06,27,04,22,17.20
2015,06,27,04,23,17.20
2015,06,27,04,24,17.20
2015,06,27,04,25,17.20
2015,06,27,04,26,17.10
2015,06,27,04,27,17.10
2015,06,27,04,28,17.10
2015,06,27,04,29,17.10
2015,06,27,04,30,17.10
2015,06,27,04,31,17.10
2015,06,27,04,32,17.10
2015,06,27,04,33,17.10
2015,06,27,04,34,17.10
2015,06,27,04,35,17.10
2015,06,27,04,36,17.10
2015,06,27,04,37,17.10
2015,06,27,04,38,17.10
2015,06,27,04,39,17.10
2015,06,27,04,40,17.10
2015,06,27,04,41,17.10
2015,06,27,04,42,17.10
2015,06,27,04,43,17.20
2015,06,27,04,44,17.20
2015,06,27,04,45,17.20
2015,06,27,04,46,17.20
2015,06,27,04,47,17.20
2015,06,27,04,48,17.20
2015,06,27,04,49,17.20
2015,06,27,04,50,17.20
2015,06,27,04,51,17.20
2015,06,27,04,52,17.20
2015,06,27,04,53,17.20
2015,06,27,04,54,17.10
2015,06,27,04,55,17.10
2015,06,27,04,56,17.10
2015,06,27,04,57,17.10
2015,06,27,04,58,17.10
2015,06,27,04,59,17.10
2015,06,27,05,00,17.10
2015,06,27,05,01,17.10
2015,06,27,05,02,17.10
2015,06,27,05,03,17.10
2015,06,27,05,04,17.10
2015,06,27,05,05,17.10
2015,06,27,05,06,17.10
2015,06,27,05,07,17.10
2015,06,27,05,08,17.10
2015,06,27,05,09,17.10
2015,06,27,05,10,17.10
2015,06,27,05,11,17.10
2015,06,27,05,12,17.10
2015,06,27,05,13,17.10
2015,06,27,05,14,17.10
2015,06,27,05,15,17.10
2015,06,27,05,16,17.10
2015,06,27,05,17,17.10
2015,06,27,05,18,17.10
2015,06,27,05,19,17.10
2015,06,27,05,20,17.10
2015,06,27,05,21,17.10
2015,06,27,05,22,17.10
2015,06,27,05,23,17.10
2015,06,27,05,24,17.10
2015,06,27,05,25,17.10
2015,06,27,05,26,17.10
2015,06,27,05,27,17.10
2015,06,27,05,28,17.10
2015,06,27,05,29,17.10
2015,06,27,05,30,17.10
2015,06,27,05,31,17.10
2015,06,27,05,32,17.00
2015,06,27,05,33,17.00
2015,06,27,05,34,17.00
2015,06,27,05,35,17.00
2015,06,27,05,36,17.00
2015,06,27,05,37,17.00
2015,06,27,05,38,17.00
2015,06,27,05,39,17.00
2015,06,27,05,40,17.00
2015,06,27,05,41,16.90
2015,06,27,05,42,16.90
2015,06,27,05,43,16.90
2015,06,27,05,44,16.90
2015,06,27,05,45,16.90
2015,06,27,05,46,16.80
2015,06,27,05,47,16.80
2015,06,27,05,48,16.80
2015,06,27,05,49,16.80
2015,06,27,05,50,16.80
2015,06,27,05,51,16.80
2015,06,27,05,52,16.80
2015,06,27,05,53,16.80
2015,06,27,05,54,16.80
2015,06,27,05,55,16.80
2015,06,27,05,56,16.80
2015,06,27,05,57,16.80
2015,06,27,05,58,16.80
2015,06,27,05,59,16.80
2015,06,27,06,00,16.80
2015,06,27,06,01,16.80
2015,06,27,06,02,16.80
2015,06,27,06,03,16.80
2015,06,27,06,04,16.80
2015,06,27,06,05,16.80
2015,06,27,06,06,16.80
2015,06,27,08,12,22.70
2015,06,27,08,13,22.70
2015,06,27,08,14,22.70
2015,06,27,08,15,22.70
2015,06,27,08,16,22.70
2015,06,27,08,17,22.70
2015,06,27,08,18,22.60
2015,06,27,08,19,22.60
2015,06,27,08,20,22.50
2015,06,27,08,21,22.40
2015,06,27,08,22,22.40
2015,06,27,08,23,22.40
2015,06,27,08,24,22.40
2015,06,27,08,25,22.40
2015,06,27,08,26,22.40
2015,06,27,08,27,22.50
2015,06,27,08,28,22.60
2015,06,27,08,29,22.60
2015,06,27,08,30,22.60
2015,06,27,08,31,22.70
2015,06,27,08,32,22.70
2015,06,27,08,33,22.80
2015,06,27,08,34,22.70
2015,06,27,08,35,22.60
2015,06,27,08,36,22.50
2015,06,27,08,37,22.40
2015,06,27,08,38,22.30
2015,06,27,08,39,22.20
2015,06,27,08,40,22.10
2015,06,27,08,41,22.00
2015,06,27,08,42,21.90
2015,06,27,08,43,21.80
2015,06,27,08,44,21.70
2015,06,27,08,45,21.60
2015,06,27,08,46,21.60
2015,06,27,08,47,21.60
2015,06,27,08,48,21.50
2015,06,27,08,49,21.40
2015,06,27,08,50,21.40
2015,06,27,08,51,21.40
2015,06,27,08,52,21.40
2015,06,27,08,53,21.50
2015,06,27,08,54,21.60
2015,06,27,08,55,21.70
2015,06,27,08,56,21.80
2015,06,27,08,57,21.80
2015,06,27,08,58,21.90
2015,06,27,08,59,21.90
2015,06,27,09,00,21.90
2015,06,27,09,01,21.80
2015,06,27,09,02,21.80
2015,06,27,09,03,21.80
2015,06,27,09,04,21.80
2015,06,27,09,05,21.90
2015,06,27,09,06,22.00
2015,06,27,09,07,22.00
2015,06,27,09,08,22.10
2015,06,27,09,09,22.20
2015,06,27,09,10,22.40
2015,06,27,09,11,22.40
2015,06,27,09,12,22.40
2015,06,27,09,13,22.40
2015,06,27,09,14,22.50
2015,06,27,09,15,22.60
2015,06,27,09,16,22.70
2015,06,27,09,17,22.90
2015,06,27,09,18,23.00
2015,06,27,09,19,23.10
2015,06,27,09,20,23.10
2015,06,27,09,21,23.20
2015,06,27,09,22,23.30
2015,06,27,09,23,23.20
2015,06,27,09,24,23.20
2015,06,27,09,25,23.20
2015,06,27,09,26,23.20
2015,06,27,09,27,23.20
2015,06,27,09,28,22.90
2015,06,27,09,29,22.60
2015,06,27,09,30,22.30
2015,06,27,09,31,21.90
2015,06,27,09,32,21.70
2015,06,27,09,33,21.30
2015,06,27,09,34,21.00
2015,06,27,09,35,20.80
2015,06,27,09,36,20.70
2015,06,27,09,37,20.70
2015,06,27,09,38,20.70
2015,06,27,09,39,20.70
2015,06,27,09,40,20.60
2015,06,27,09,41,20.50
2015,06,27,09,42,20.40
2015,06,27,09,43,20.30
2015,06,27,09,44,20.30
2015,06,27,09,45,20.20
2015,06,27,09,46,20.20
2015,06,27,09,47,20.10
2015,06,27,09,48,20.00
2015,06,27,09,49,19.80
2015,06,27,09,50,19.70
2015,06,27,09,51,19.70
2015,06,27,09,52,19.60
2015,06,27,09,53,19.60
2015,06,27,09,54,19.60
2015,06,27,09,55,19.50
2015,06,27,09,56,19.40
2015,06,27,09,57,19.30
2015,06,27,09,58,19.20
2015,06,27,09,59,19.20
2015,06,27,10,00,19.10
2015,06,27,10,01,19.10
2015,06,27,10,02,19.20
2015,06,27,10,03,19.20
2015,06,27,10,04,19.30
2015,06,27,10,05,19.40
2015,06,27,10,06,19.60
2015,06,27,10,07,19.70
2015,06,27,10,08,19.80
2015,06,27,10,09,20.00
2015,06,27,10,10,20.00
2015,06,27,10,11,20.10
2015,06,27,10,12,20.30
2015,06,27,10,13,20.40
2015,06,27,10,14,20.40
2015,06,27,10,15,20.50
2015,06,27,10,16,20.50
2015,06,27,10,17,20.60
2015,06,27,10,18,20.70
2015,06,27,10,19,20.80
2015,06,27,10,20,21.00
2015,06,27,10,21,21.20
2015,06,27,10,22,21.40
2015,06,27,10,23,21.70
2015,06,27,10,24,21.80
2015,06,27,10,25,21.80
2015,06,27,10,26,21.80
2015,06,27,10,27,21.90
2015,06,27,10,28,22.00
2015,06,27,10,29,22.00
2015,06,27,10,30,22.20
2015,06,27,10,31,22.30
2015,06,27,10,32,22.40
2015,06,27,10,33,22.40
2015,06,27,10,34,22.30
2015,06,27,10,35,22.20
2015,06,27,10,36,22.10
2015,06,27,10,37,22.10
2015,06,27,10,38,22.20
2015,06,27,10,39,22.20
2015,06,27,10,40,22.30
2015,06,27,10,41,22.40
2015,06,27,10,42,22.50
2015,06,27,10,43,22.60
2015,06,27,10,44,22.70
2015,06,27,10,45,22.80
2015,06,27,10,46,22.90
2015,06,27,10,47,23.10
2015,06,27,10,48,23.20
2015,06,27,10,49,23.30
2015,06,27,10,50,23.30
2015,06,27,10,51,23.30
2015,06,27,10,52,23.40
2015,06,27,10,53,23.60
2015,06,27,10,54,23.70
2015,06,27,10,55,23.70
2015,06,27,10,56,23.70
2015,06,27,10,57,23.70
2015,06,27,10,58,23.70
2015,06,27,10,59,23.70
2015,06,27,11,00,23.70
2015,06,27,11,01,23.80
2015,06,27,11,02,23.90
2015,06,27,11,03,24.10
2015,06,27,11,04,24.00
2015,06,27,11,05,23.90
2015,06,27,11,06,23.80
2015,06,27,11,07,23.80
2015,06,27,11,08,23.80
2015,06,27,11,09,23.80
2015,06,27,11,10,23.80
2015,06,27,11,11,23.90
2015,06,27,11,12,24.00
2015,06,27,11,13,24.10
2015,06,27,11,14,24.20
2015,06,27,11,15,24.20
2015,06,27,11,16,24.20
2015,06,27,11,17,24.20
2015,06,27,11,18,24.30
2015,06,27,11,19,24.40
2015,06,27,11,20,24.50
2015,06,27,11,21,24.60
2015,06,27,11,22,24.70
2015,06,27,11,23,24.90
2015,06,27,11,24,24.90
2015,06,27,11,25,25.00
2015,06,27,11,26,25.20
2015,06,27,11,27,25.40
2015,06,27,11,28,25.40
2015,06,27,11,29,25.40
2015,06,27,11,30,25.30
2015,06,27,11,31,25.20
2015,06,27,11,32,25.10
2015,06,27,11,33,25.00
2015,06,27,11,34,24.80
2015,06,27,11,35,24.70
2015,06,27,11,36,24.80
2015,06,27,11,37,24.80
2015,06,27,11,38,24.60
2015,06,27,11,39,24.50
2015,06,27,11,40,24.30
2015,06,27,11,41,24.20
2015,06,27,11,42,24.20
2015,06,27,11,43,24.20
2015,06,27,11,44,24.30
2015,06,27,11,45,24.30
2015,06,27,11,46,24.40
2015,06,27,11,47,24.60
2015,06,27,11,48,24.80
2015,06,27,11,49,24.90
2015,06,27,11,50,24.90
2015,06,27,11,51,25.00
2015,06,27,11,52,25.20
2015,06,27,11,53,25.30
2015,06,27,11,54,25.40
2015,06,27,11,55,25.60
2015,06,27,11,56,25.80
2015,06,27,11,57,26.00
2015,06,27,11,58,26.10
2015,06,27,11,59,26.30
2015,06,27,12,00,26.30
2015,06,27,12,01,25.90
2015,06,27,12,02,25.20
2015,06,27,12,03,24.80
2015,06,27,12,04,24.20
2015,06,27,12,05,23.50
2015,06,27,12,06,23.00
2015,06,27,12,07,22.70
2015,06,27,12,08,22.70
2015,06,27,12,09,22.70
2015,06,27,12,10,22.80
2015,06,27,12,11,22.80
2015,06,27,12,12,22.90
2015,06,27,12,13,23.10
2015,06,27,12,14,23.20
2015,06,27,12,15,23.20
2015,06,27,12,16,23.20
2015,06,27,12,17,23.30
2015,06,27,12,18,23.50
2015,06,27,12,19,23.50
2015,06,27,12,20,23.50
2015,06,27,12,21,23.70
2015,06,27,12,22,23.70
2015,06,27,12,23,23.80
2015,06,27,12,24,23.80
2015,06,27,12,25,23.70
2015,06,27,12,26,23.50
2015,06,27,12,27,23.40
2015,06,27,12,28,23.40
2015,06,27,12,29,23.50
2015,06,27,12,30,23.60
2015,06,27,12,31,23.80
2015,06,27,12,32,23.90
2015,06,27,12,33,24.00
2015,06,27,12,34,24.00
2015,06,27,12,35,24.10
2015,06,27,12,36,24.20
2015,06,27,12,37,24.30
2015,06,27,12,38,24.30
2015,06,27,12,39,24.50
2015,06,27,12,40,24.60
2015,06,27,12,41,24.80
2015,06,27,12,42,24.80
2015,06,27,12,43,24.80
2015,06,27,12,44,24.90
2015,06,27,12,45,25.00
2015,06,27,12,46,25.10
2015,06,27,12,47,25.10
2015,06,27,12,48,25.10
2015,06,27,12,49,25.20
2015,06,27,12,50,25.30
2015,06,27,12,51,25.40
2015,06,27,12,52,25.50
2015,06,27,12,53,25.40
2015,06,27,12,54,25.20
2015,06,27,12,55,25.10
2015,06,27,12,56,24.80
2015,06,27,12,57,24.80
2015,06,27,12,58,24.90
2015,06,27,12,59,25.00
2015,06,27,13,00,25.00
2015,06,27,13,01,25.00
2015,06,27,13,02,25.10
2015,06,27,13,03,25.30
2015,06,27,13,04,25.40
2015,06,27,13,05,25.60
2015,06,27,13,06,25.60
2015,06,27,13,07,25.60
2015,06,27,13,08,25.50
2015,06,27,13,09,25.30
2015,06,27,13,10,25.00
2015,06,27,13,11,24.80
2015,06,27,13,12,24.90
2015,06,27,13,13,25.00
2015,06,27,13,14,25.10
2015,06,27,13,15,25.20
2015,06,27,13,16,25.10
2015,06,27,13,17,24.90
2015,06,27,13,18,24.80
2015,06,27,13,19,24.80
2015,06,27,13,20,24.90
2015,06,27,13,21,24.90
2015,06,27,13,22,24.90
2015,06,27,13,23,24.90
2015,06,27,13,24,24.90
2015,06,27,13,25,24.80
2015,06,27,13,26,24.90
2015,06,27,13,27,25.00
2015,06,27,13,28,25.20
2015,06,27,13,29,25.40
2015,06,27,13,30,25.70
2015,06,27,13,31,25.90
2015,06,27,13,32,26.00
2015,06,27,13,33,26.10
2015,06,27,13,34,26.20
2015,06,27,13,35,26.30
2015,06,27,13,36,26.50
2015,06,27,13,37,26.60
2015,06,27,13,38,26.80
2015,06,27,13,39,26.80
2015,06,27,13,40,26.80
2015,06,27,13,41,26.80
2015,06,27,13,42,26.80
2015,06,27,13,43,26.80
2015,06,27,13,44,26.90
2015,06,27,13,45,26.70
2015,06,27,13,46,26.40
2015,06,27,13,47,26.30
2015,06,27,13,48,26.30
2015,06,27,13,49,26.40
2015,06,27,13,50,26.40
2015,06,27,13,51,26.40
2015,06,27,13,52,26.30
2015,06,27,13,53,26.20
2015,06,27,13,54,26.10
2015,06,27,13,55,26.00
2015,06,27,13,56,25.90
2015,06,27,13,57,25.90
2015,06,27,13,58,25.80
2015,06,27,13,59,25.60
2015,06,27,14,00,25.60
2015,06,27,14,01,25.60
2015,06,27,14,02,25.70
2015,06,27,14,03,25.90
2015,06,27,14,04,26.00
2015,06,27,14,05,26.20
2015,06,27,14,06,26.30
2015,06,27,14,07,26.40
2015,06,27,14,08,26.40
2015,06,27,14,09,26.40
2015,06,27,14,10,26.40
2015,06,27,14,11,26.40
2015,06,27,14,12,26.30
2015,06,27,14,13,26.20
2015,06,27,14,14,26.20
2015,06,27,14,15,26.10
2015,06,27,14,16,26.20
2015,06,27,14,17,26.30
2015,06,27,14,18,26.30
2015,06,27,14,19,26.20
2015,06,27,14,20,26.20
2015,06,27,14,21,26.30
2015,06,27,14,22,26.40
2015,06,27,14,23,26.50
2015,06,27,14,24,26.60
2015,06,27,14,25,26.70
2015,06,27,14,26,26.90
2015,06,27,14,27,27.10
2015,06,27,14,28,27.20
2015,06,27,14,29,27.10
2015,06,27,14,30,26.90
2015,06,27,14,31,26.80
2015,06,27,14,32,26.80
2015,06,27,14,33,26.80
2015,06,27,14,34,26.80
2015,06,27,14,35,26.90
2015,06,27,14,36,27.00
2015,06,27,14,37,27.10
2015,06,27,14,38,27.20
2015,06,27,14,39,27.20
2015,06,27,14,40,27.10
2015,06,27,14,41,27.00
2015,06,27,14,42,27.10
2015,06,27,14,43,27.20
2015,06,27,14,44,27.30
2015,06,27,14,45,27.40
2015,06,27,14,46,27.50
2015,06,27,14,47,27.60
2015,06,27,14,48,27.80
2015,06,27,14,49,27.80
2015,06,27,14,50,27.80
2015,06,27,14,51,27.80
2015,06,27,14,52,27.90
2015,06,27,14,53,27.90
2015,06,27,14,54,28.00
2015,06,27,14,55,28.10
2015,06,27,14,56,28.10
2015,06,27,14,57,28.10
2015,06,27,14,58,28.10
2015,06,27,14,59,28.10
2015,06,27,15,00,28.10
2015,06,27,15,01,28.20
2015,06,27,15,02,28.30
2015,06,27,15,03,28.30
2015,06,27,15,04,28.40
2015,06,27,15,05,28.50
2015,06,27,15,06,28.60
2015,06,27,15,07,28.60
2015,06,27,15,08,28.40
2015,06,27,15,09,28.10
2015,06,27,15,10,27.90
2015,06,27,15,11,27.80
2015,06,27,15,12,27.80
2015,06,27,15,13,27.80
2015,06,27,15,14,27.90
2015,06,27,15,15,28.00
2015,06,27,15,16,28.00
2015,06,27,15,17,27.80
2015,06,27,15,18,27.70
2015,06,27,15,19,27.70
2015,06,27,15,20,27.70
2015,06,27,15,21,27.80
2015,06,27,15,22,28.00
2015,06,27,15,23,28.20
2015,06,27,15,24,28.40
2015,06,27,15,25,28.50
2015,06,27,15,26,28.60
2015,06,27,15,27,28.80
2015,06,27,15,28,28.70
2015,06,27,15,29,28.50
2015,06,27,15,30,28.40
2015,06,27,15,31,28.40
2015,06,27,15,32,28.40
2015,06,27,15,33,28.30
2015,06,27,15,34,28.10
2015,06,27,15,35,28.00
2015,06,27,15,36,28.00
2015,06,27,15,37,28.00
2015,06,27,15,38,28.00
2015,06,27,15,39,27.80
2015,06,27,15,40,27.70
2015,06,27,15,41,27.50
2015,06,27,15,42,27.50
2015,06,27,15,43,27.50
2015,06,27,15,44,27.70
2015,06,27,15,45,27.90
2015,06,27,15,46,28.00
2015,06,27,15,47,27.90
2015,06,27,15,48,27.70
2015,06,27,15,49,27.60
2015,06,27,15,50,27.60
2015,06,27,15,51,27.60
2015,06,27,15,52,27.60
2015,06,27,15,53,27.50
2015,06,27,15,54,27.40
2015,06,27,15,55,27.40
2015,06,27,15,56,27.30
2015,06,27,15,57,27.30
2015,06,27,15,58,27.30
2015,06,27,15,59,27.20
2015,06,27,16,00,27.20
2015,06,27,16,01,27.20
2015,06,27,16,02,27.20
2015,06,27,16,03,27.30
2015,06,27,16,04,27.30
2015,06,27,16,05,27.30
2015,06,27,16,06,27.40
2015,06,27,16,07,27.50
2015,06,27,16,08,27.60
2015,06,27,16,09,27.90
2015,06,27,16,10,28.00
2015,06,27,16,11,28.20
2015,06,27,16,12,28.30
2015,06,27,16,13,28.40
2015,06,27,16,14,28.60
2015,06,27,16,15,28.70
2015,06,27,16,16,28.80
2015,06,27,16,17,28.90
2015,06,27,16,18,29.00
2015,06,27,16,19,28.90
2015,06,27,16,20,28.90
2015,06,27,16,21,28.80
2015,06,27,16,22,28.70
2015,06,27,16,23,28.60
2015,06,27,16,24,28.40
2015,06,27,16,25,28.30
2015,06,27,16,26,28.30
2015,06,27,16,27,28.20
2015,06,27,16,28,28.20
2015,06,27,16,29,28.20
2015,06,27,16,30,28.20
2015,06,27,16,31,28.30
2015,06,27,16,32,28.50
2015,06,27,16,33,28.60
2015,06,27,16,34,28.70
2015,06,27,16,35,28.70
2015,06,27,16,36,28.80
2015,06,27,16,37,28.90
2015,06,27,16,38,28.90
2015,06,27,16,39,28.80
2015,06,27,16,40,28.80
2015,06,27,16,41,28.80
2015,06,27,16,42,28.70
2015,06,27,16,43,28.70
2015,06,27,16,44,28.80
2015,06,27,16,45,28.80
2015,06,27,16,46,28.70
2015,06,27,16,47,28.60
2015,06,27,16,48,28.60
2015,06,27,16,49,28.60
2015,06,27,16,50,28.60
2015,06,27,16,51,28.60
2015,06,27,16,52,28.60
2015,06,27,16,53,28.60
2015,06,27,16,54,28.50
2015,06,27,16,55,28.50
2015,06,27,16,56,28.40
2015,06,27,16,57,28.40
2015,06,27,16,58,28.50
2015,06,27,16,59,28.60
2015,06,27,17,00,28.70
2015,06,27,17,01,28.70
2015,06,27,17,02,28.70
2015,06,27,17,03,28.70
2015,06,27,17,04,28.60
2015,06,27,17,05,28.60
2015,06,27,17,06,28.50
2015,06,27,17,07,28.50
2015,06,27,17,08,28.50
2015,06,27,17,09,28.50
2015,06,27,17,10,28.60
2015,06,27,17,11,28.70
2015,06,27,17,12,28.70
2015,06,27,17,13,28.60
2015,06,27,17,14,28.50
2015,06,27,17,15,28.40
2015,06,27,17,16,28.30
2015,06,27,17,17,28.30
2015,06,27,17,18,28.30
2015,06,27,17,19,28.30
2015,06,27,17,20,28.30
2015,06,27,17,21,28.20
2015,06,27,17,22,28.20
2015,06,27,17,23,28.20
2015,06,27,17,24,28.10
2015,06,27,17,25,28.10
2015,06,27,17,26,28.10
2015,06,27,17,27,28.00
2015,06,27,17,28,27.90
2015,06,27,17,29,27.80
2015,06,27,17,30,27.80
2015,06,27,17,31,27.80
2015,06,27,17,32,27.80
2015,06,27,17,33,27.90
2015,06,27,17,34,27.90
2015,06,27,17,35,28.00
2015,06,27,17,36,28.10
2015,06,27,17,37,28.10
2015,06,27,17,38,28.10
2015,06,27,17,39,28.20
2015,06,27,17,40,28.30
2015,06,27,17,41,28.30
2015,06,27,17,42,28.30
2015,06,27,17,43,28.40
2015,06,27,17,44,28.50
2015,06,27,17,45,28.60
2015,06,27,17,46,28.60
2015,06,27,17,47,28.60
2015,06,27,17,48,28.50
2015,06,27,17,49,28.40
2015,06,27,17,50,28.30
2015,06,27,17,51,28.20
2015,06,27,17,52,28.20
2015,06,27,17,53,28.20
2015,06,27,17,54,28.30
2015,06,27,17,55,28.30
2015,06,27,17,56,28.40
2015,06,27,17,57,28.40
2015,06,27,17,58,28.50
2015,06,27,17,59,28.50
2015,06,27,18,00,28.60
2015,06,27,18,01,28.60
2015,06,27,18,02,28.50
2015,06,27,18,03,28.50
2015,06,27,18,04,28.40
2015,06,27,18,05,28.40
2015,06,27,18,06,28.40
2015,06,27,18,07,28.40
2015,06,27,18,08,28.30
2015,06,27,18,09,28.20
2015,06,27,18,10,28.10
2015,06,27,18,11,28.00
2015,06,27,18,12,27.90
2015,06,27,18,13,27.90
2015,06,27,18,14,27.90
2015,06,27,18,15,27.80
2015,06,27,18,16,27.80
2015,06,27,18,17,27.80
2015,06,27,18,18,27.80
2015,06,27,18,19,27.80
2015,06,27,18,20,27.80
2015,06,27,18,21,27.70
2015,06,27,18,22,27.70
2015,06,27,18,23,27.70
2015,06,27,18,24,27.60
2015,06,27,18,25,27.40
2015,06,27,18,26,27.40
2015,06,27,18,27,27.30
2015,06,27,18,28,27.30
2015,06,27,18,29,27.30
2015,06,27,18,30,27.30
2015,06,27,18,31,27.30
2015,06,27,18,32,27.40
2015,06,27,18,33,27.40
2015,06,27,18,34,27.20
2015,06,27,18,35,27.00
2015,06,27,18,36,26.70
2015,06,27,18,37,26.50
2015,06,27,18,38,26.40
2015,06,27,18,39,26.30
2015,06,27,18,40,26.30
2015,06,27,18,41,26.30
2015,06,27,18,42,26.30
2015,06,27,18,43,26.30
2015,06,27,18,44,26.30
2015,06,27,18,45,26.10
2015,06,27,18,46,26.10
2015,06,27,18,47,26.10
2015,06,27,18,48,26.10
2015,06,27,18,49,26.20
2015,06,27,18,50,26.20
2015,06,27,18,51,26.20
2015,06,27,18,52,26.10
2015,06,27,18,53,26.00
2015,06,27,18,54,26.00
2015,06,27,18,55,25.90
2015,06,27,18,56,25.90
2015,06,27,18,57,25.90
2015,06,27,18,58,25.90
2015,06,27,18,59,25.90
2015,06,27,19,00,25.90
2015,06,27,19,01,25.90
2015,06,27,19,02,25.90
2015,06,27,19,03,25.90
2015,06,27,19,04,25.90
2015,06,27,19,05,25.80
2015,06,27,19,06,25.80
2015,06,27,19,07,25.80
2015,06,27,19,08,25.90
2015,06,27,19,09,25.90
2015,06,27,19,10,25.90
2015,06,27,19,11,25.90
2015,06,27,19,12,26.00
2015,06,27,19,13,26.10
2015,06,27,19,14,26.10
2015,06,27,19,15,26.20
2015,06,27,19,16,26.30
2015,06,27,19,17,26.30
2015,06,27,19,18,26.30
2015,06,27,19,19,26.30
2015,06,27,19,20,26.20
2015,06,27,19,21,26.00
2015,06,27,19,22,25.90
2015,06,27,19,23,25.80
2015,06,27,19,24,25.80